sat.trackr.live / text

‹ back to catalog

STARLINK-31742

NORAD 59499 · 2024-071R

PAYLOAD ACTIVE UNKNOWN

§ Identity

Operator
Country
US
Launch date
2024-04-13
Launch site
AFETR
Launch vehicle
Mass (kg)
RCS (m²)

Purposes: comms

External: N2YO · Heavens-Above · Gunter

§ Orbital elements

Epoch: 2026-09-21T14:58:28.342560Z

Period
94.27 min
Inclination
43.0019°
Eccentricity
0.0001093
Mean motion
15.27591342 rev/d
Perigee alt
482.3 km
Apogee alt
483.8 km
Semi-major
6,861.2 km
B*
-6.3955e-5
RAAN
313.0007°
Arg perigee
265.9711°
Mean anomaly
94.1015°
Rev number
13,817

§ Raw data

STARLINK-317421 59499U 24071R   26264.62393915 -.00002022  00000+0 -63955-4 0  99972 59499  43.0019 313.0007 0001093 265.9711  94.1015 15.27591342138172

JSON: /api/v1/satellites/59499 · /tle

For live sub-satellite position, see the globe view (requires WebGL).

§ Visibility from observer

Set your observer location to see the next 7 days of passes ≥ 10°. The values pass through the URL so the page stays shareable.

No JS? Fill the form by hand. The geolocation button needs JavaScript.